User: anonymous   Login
Location: Unspecified
(0.0000°N, 0.0000°E)
Time: 13:47:23
(UTC+00:00)
Language:

IGS 5A - Orbit

View from above orbital plane
View from above orbital plane
View from above satellite
View from above satellite

Ground track
Ground track

The orbit data is extracted from the following two-line orbital elements,

1 36104U 09066A   18260.89350629 0.00000000  00000-0  00000-0 0    07
2 36104  97.6907 331.2235 0002000  18.8378 341.1620 14.93609591    04
Epoch (UTC): 17 September 2018 21:26:38
Eccentricity: 0.0002000
inclination: 97.6907°
perigee height: 585 km
apogee height: 588 km
right ascension of ascending node: 331.2235°
argument of perigee: 18.8378°
revolutions per day: 14.93609591
mean anomaly at epoch: 341.1620°
orbit number at epoch: 0

The dashed part of the orbit path shows where the satellite is in the earth's shadow,  

DLR